Torna al catalogo

HEAD-3D

AttivoScienzaLEO
NORAD 57629·PAYLOAD·🇨🇳 China

Lanciato Aug 14, 2023 da Xichang Satellite Launch Center

Loading…

Prossimi Passaggi (prossime 24 ore)

TLE

AggiornatoSource: Space-Track

Epoca: Sep 14, 2026, 10:58 UTC

1 57629U 23121D   26257.45731794  .00000465  00000-0  12127-3 0  9991
2 57629  45.0044 214.0659 0007908   3.6593 356.4321 14.63045105164874

Traccia HEAD-3D in tempo reale con AllMySat

Download on the App Store